Location: Arcadia
(34.1397°N, 118.0353°W)
Time: 23:52:18
(UTC+00:00)

Thor Agena Rocket - Pass Details

Date: 08 September 2024
Orbit: 757 x 803 km, 99.1° (Epoch: 13 October)

Event Time Altitude Azimuth Distance (km) Brightness Sun altitude
Rises 11:58:17 0° 14° (NNE) 3,249 7.2 -19.4°
Reaches altitude 10° 12:00:35 10° 15° (NNE) 2,325 6.5 -19.0°
Maximum altitude 12:05:43 85° 103° (ESE) 789 3.5 -18.0°
Drops below altitude 10° 12:10:54 10° 193° (SSW) 2,342 5.7 -16.9°
Enters shadow 12:11:46 - 193° (SSW) 2,689 6.0 -16.8°
